Simultaneous Nadir Overpasses (SNOs) Predictions

Prediction of SNOs between FY3D and TERRA Satellite Orbit:

Table of predicted SNOs for the next 14.0 days since TLE Epoch: 11/13/2020
Index Date (FY3D) Time (FY3D) Lat,Lon (FY3D) SZA (FY3D ) Date (TERRA) Time (TERRA) Lat,Lon (TERRA) SZA (TERRA ) Distance(km) Time Diff (sec)
1 11/15/2020 02:12:03 -69.14, -33.60 92.37 11/15/2020 02:13:09 -69.16, -33.62 92.35 2.53 66
2 11/15/2020 03:02:47 69.07, 133.81 87.57 11/15/2020 03:02:36 69.06, 133.89 87.55 3.65 11
3 11/15/2020 03:53:23 -68.66, -58.31 92.83 11/15/2020 03:52:10 -68.73, -58.90 92.78 24.81 73
4 11/17/2020 18:28:26 -69.20, 82.24 91.66 11/17/2020 18:29:37 -69.20, 82.30 91.66 2.40 71
5 11/17/2020 19:19:08 69.03,-110.21 88.19 11/17/2020 19:19:05 69.03,-110.27 88.18 2.50 3
6 11/17/2020 20:09:49 -68.88, 57.32 91.96 11/17/2020 20:08:35 -68.92, 57.23 91.93 5.79 74
7 11/20/2020 10:44:52 -69.42,-162.15 90.83 11/20/2020 10:46:03 -69.33,-161.64 90.91 22.27 71
8 11/20/2020 11:35:30 69.04, 5.70 88.81 11/20/2020 11:35:33 69.05, 5.64 88.82 2.49 3
9 11/20/2020 12:26:12 -68.94, 173.15 91.28 11/20/2020 12:25:03 -68.95, 173.14 91.29 0.84 69
10 11/23/2020 03:01:17 -69.64, -46.55 90.04 11/23/2020 03:02:27 -69.52, -45.51 90.15 42.59 70
11 11/23/2020 03:51:51 69.06, 121.60 89.39 11/23/2020 03:52:00 69.07, 121.54 89.40 2.68 9
12 11/23/2020 04:42:33 -68.95, -70.94 90.70 11/23/2020 04:41:30 -68.97, -70.95 90.70 1.83 63
13 11/25/2020 19:17:42 -69.81, 69.12 89.34 11/25/2020 19:18:51 -69.75, 70.68 89.38 60.64 69
14 11/25/2020 20:08:13 69.07,-122.50 89.94 11/25/2020 20:08:28 69.08,-122.56 89.94 2.68 15
15 11/25/2020 20:58:55 -68.97, 44.96 90.17 11/25/2020 20:57:58 -68.98, 44.94 90.16 2.04 57
